[[{"header":{"parameterUnit":"m.s-1","parameterCategory":2,"la1":30.2991,"la2":30.254,"lo1":-89.0895,"lo2":-89.0444,"dy":0.0017,"dx":0.0017,"nx":28,"ny":28,"refTime":"2025-03-15T21:00:00:Z","depth":"0","parameterNumber":2,"parameterNumberName":"U-component_of_CURRENTS"},"data":[0,0,0,0,0,0,0,0,0,0,0,0,0,0,0,0,0,0,0,0,0,0,0,0,0,0,0,0,0,0,0,0,0,0,0,0,0,0,0,0,0,0,0,0,0,0,0,0,0,0,0,0,0,0,0,0,0,0,0.2709,0.271,0,0.2735,0.2735,0.2735,0.2681,0.268,0.2679,0.2678,0.2649,0.2649,0.265,0,0,0,0,0,0,0,0,0,0,0,0,0,0.2561,0.2564,0.2709,0.271,0.2711,0.2735,0.2735,0.2735,0.2681,0.268,0.2679,0.2677,0.2649,0.2649,0.265,0,0,0,0,0,0,0,0,0,0,0,0,0,0.2604,0.2565,0.2709,0.2692,0.2691,0.2735,0.2735,0.2735,0.2682,0.268,0.2678,0.2677,0.2649,0.2649,0.265,0.2686,0,0,0.2651,0.2651,0,0,0,0,0,0,0,0,0.2602,0.2609,0.2694,0.2693,0.2693,0.2709,0.2673,0.2718,0.2682,0.2678,0.2678,0.2676,0.267,0.2668,0.2668,0.2684,0.2683,0.2651,0.2651,0.2651,0.2651,0,0,0,0,0,0,0,0.2599,0.2607,0.2712,0.2695,0.2695,0.2667,0.267,0.2681,0.2677,0.2678,0.2676,0.2691,0.2668,0.2668,0.2667,0.2683,0.2651,0.2651,0.2652,0.2652,0.2729,0.273,0,0,0,0,0,0,0.2615,0.2605,0.2711,0.2714,0.265,0.2671,0.2675,0.27,0.2678,0.2675,0.2692,0.2688,0.2668,0.2667,0.2666,0.2708,0.2651,0.2652,0.2652,0.2727,0.2729,0.2731,0,0,0,0,0,0,0.2612,0.2625,0.2711,0.2664,0.2674,0.2677,0.2704,0.2702,0.2702,0.269,0.2684,0.2696,0.2667,0.2665,0.2677,0.2706,0.2652,0.2652,0.2725,0.2727,0.273,0.2791,0,0,0,0,0,0,0.2608,0.2623,0.2643,0.2666,0.2678,0.2743,0.2707,0.2704,0.2717,0.2712,0.2692,0.2687,0.2665,0.2677,0.2678,0.2705,0.2653,0.2722,0.2726,0.2729,0.2787,0.2796,0.2803,0,0,0,0,0,0.2602,0.2634,0.2644,0.2657,0.2706,0.2745,0.2748,0.2738,0.2719,0.2729,0.2713,0.2688,0.2699,0.2679,0.2679,0.2708,0.2721,0.2725,0.2729,0.2783,0.2794,0.2803,0,0,0,0,0,0,0.2578,0.2633,0.2644,0.269,0.2722,0.2739,0.2754,0.2749,0.2745,0.2736,0.271,0.2706,0.2734,0.2716,0.2695,0.2742,0.2707,0.2712,0.2749,0.2759,0.2767,0.2771,0.2653,0,0,0,0,0,0.2588,0.2621,0.2671,0.2706,0.2732,0.2746,0.276,0.2757,0.2763,0.2759,0.2749,0.2743,0.2754,0.275,0.2759,0.2781,0.2772,0.2801,0.2809,0.2816,0.2822,0.2839,0.2849,0.2744,0.2744,0.2744,0,0,0.2591,0.2622,0.2644,0.2702,0.2726,0.2761,0.2748,0.2779,0.2798,0.2759,0.2777,0.2779,0.2771,0.2797,0.2807,0.278,0.2843,0.2821,0.2827,0.2829,0.2844,0.2854,0.2863,0.2747,0.2746,0.2746,0,0,0.2609,0.2646,0.2683,0.2712,0.2759,0.2774,0.2789,0.282,0.2828,0.2853,0.2837,0.2853,0.286,0.2862,0.2863,0.2925,0.2896,0.293,0.296,0.2977,0.2986,0.2993,0.2996,0.3003,0.292,0.292,0.292,0,0.2614,0.2657,0.2697,0.2734,0.2757,0.2783,0.2819,0.2842,0.2865,0.2884,0.2865,0.2903,0.2893,0.2931,0.2945,0.2944,0.2941,0.292,0.2987,0.2994,0.3,0.3001,0.3008,0.2924,0.2923,0.2923,0.2923,0,0.2648,0.2686,0.2711,0.2765,0.2798,0.283,0.2879,0.291,0.2921,0.2938,0.2989,0.2987,0.3003,0.301,0.299,0.3041,0.3021,0.3004,0.2958,0.3014,0.3012,0.3018,0.2929,0.2927,0.2926,0.2926,0,0,0.2655,0.2723,0.273,0.2756,0.2812,0.2844,0.2899,0.2957,0.2996,0.302,0.307,0.309,0.3093,0.3096,0.3089,0.3096,0.3136,0.3066,0.3065,0.3062,0.3166,0.3193,0.3202,0.3128,0.3129,0.313,0.3147,0,0.2669,0.2738,0.2757,0.2809,0.2859,0.2891,0.2938,0.2991,0.3035,0.3093,0.3116,0.3157,0.3127,0.314,0.3149,0.3148,0.3155,0.3132,0.3118,0.3118,0.313,0.3211,0.3261,0.3284,0.3152,0.3153,0.3154,0,0.2688,0.2737,0.279,0.2852,0.2875,0.2898,0.2982,0.3024,0.3113,0.3152,0.3201,0.3222,0.3258,0.3222,0.3239,0.3225,0.3203,0.319,0.319,0.3198,0.3157,0.3208,0.33,0.3336,0.3163,0.3162,0.3161,0,0.2679,0.2751,0.2787,0.2805,0.2883,0.2909,0.2952,0.3041,0.3093,0.3194,0.3241,0.3289,0.3314,0.3309,0.329,0.3264,0.3305,0.3262,0.3266,0.3266,0.3299,0.33,0.342,0.3276,0.3276,0.3276,0.3276,0,0.2678,0.2711,0.2784,0.2803,0.285,0.2911,0.2964,0.3031,0.3132,0.319,0.3263,0.3323,0.3336,0.3361,0.3329,0.3333,0.3335,0.3297,0.3287,0.3323,0.3326,0.3348,0.3325,0.3277,0.3277,0.3277,0.3277,0,0.2652,0.2696,0.2741,0.282,0.2841,0.2876,0.2959,0.301,0.3114,0.3199,0.3233,0.3351,0.3397,0.341,0.3411,0.3384,0.3339,0.3373,0.3413,0.341,0.3443,0.342,0.3265,0.3162,0.3385,0.3386,0.3387,0,0.2643,0.2665,0.2733,0.2749,0.2772,0.2832,0.2871,0.2987,0.3043,0.3205,0.3243,0.3351,0.3428,0.3482,0.3489,0.3486,0.337,0.349,0.3455,0.3485,0.3451,0.323,0.3136,0.3515,0.3517,0.3518,0.3519,0,0.2617,0.2628,0.2656,0.27,0.2731,0.2771,0.2843,0.289,0.3016,0.3115,0.3239,0.333,0.3463,0.3537,0.3576,0.3562,0.3425,0.3519,0.355,0.358,0.3344,0.3228,0.3446,0.3533,0.3531,0.3531,0.353,0.3529,0.2566,0.2572,0.2597,0.2629,0.2663,0.2692,0.2704,0.2797,0.2885,0.302,0.316,0.3312,0.3571,0.3676,0.362,0.3692,0.3492,0.3673,0.3645,0.3416,0.3319,0.3565,0.364,0.364,0.3639,0.3638,0.3638,0,0.2491,0.2505,0.2531,0.2551,0.254,0.2597,0.2658,0.2665,0.273,0.2949,0.3073,0.3409,0.3607,0.3756,0.3964,0.3897,0.3625,0.3816,0.357,0.3466,0.3748,0.3768,0.3876,0.3876,0.3876,0.3876,0.3876,0.3876,0.2442,0.2426,0.2446,0.2409,0.2418,0.2401,0.2409,0.2462,0.2602,0.2818,0.3036,0.3236,0.3703,0.4117,0.4214,0.4091,0.3812,0.3671,0.3518,0.3862,0.3847,0.3833,0.3852,0.3975,0.3975,0.3156,0.3151,0.3147]},{"header":{"parameterUnit":"m.s-1","parameterCategory":2,"la1":30.2991,"la2":30.254,"lo1":-89.0895,"lo2":-89.0444,"dy":0.0017,"dx":0.0017,"nx":28,"ny":28,"refTime":"2025-03-15T21:00:00:Z","depth":"0","parameterNumber":3,"parameterNumberName":"V-component_of_CURRENTS"},"data":[0,0,0,0,0,0,0,0,0,0,0,0,0,0,0,0,0,0,0,0,0,0,0,0,0,0,0,0,0,0,0,0,0,0,0,0,0,0,0,0,0,0,0,0,0,0,0,0,0,0,0,0,0,0,0,0,0,0,-0.0126,-0.0127,0,-0.0161,-0.0162,-0.0162,-0.019,-0.019,-0.019,-0.0191,-0.0229,-0.0229,-0.023,0,0,0,0,0,0,0,0,0,0,0,0,0,-0.0094,-0.0094,-0.0126,-0.0127,-0.0127,-0.0161,-0.0162,-0.0162,-0.019,-0.019,-0.0191,-0.0191,-0.0228,-0.0229,-0.023,0,0,0,0,0,0,0,0,0,0,0,0,0,-0.0115,-0.0094,-0.0126,-0.0146,-0.0149,-0.0161,-0.0162,-0.0162,-0.0189,-0.019,-0.0191,-0.0191,-0.0228,-0.0229,-0.023,-0.0223,0,0,-0.0233,-0.0233,0,0,0,0,0,0,0,0,-0.0113,-0.0116,-0.0143,-0.0145,-0.0148,-0.0173,-0.0164,-0.0183,-0.0189,-0.0172,-0.0191,-0.0192,-0.0211,-0.0213,-0.0216,-0.0225,-0.0226,-0.0233,-0.0233,-0.0234,-0.0234,0,0,0,0,0,0,0,-0.0112,-0.0114,-0.0138,-0.0143,-0.0146,-0.0158,-0.0161,-0.0168,-0.0186,-0.0174,-0.0176,-0.0183,-0.0212,-0.0215,-0.0217,-0.0227,-0.0233,-0.0234,-0.0234,-0.0235,-0.0252,-0.0252,0,0,0,0,0,0,-0.011,-0.0113,-0.0137,-0.014,-0.0134,-0.0158,-0.0162,-0.0163,-0.0186,-0.0191,-0.0182,-0.0184,-0.0213,-0.0216,-0.0219,-0.0209,-0.0234,-0.0235,-0.0235,-0.0252,-0.0252,-0.0252,0,0,0,0,0,0,-0.0109,-0.0111,-0.0136,-0.0129,-0.0133,-0.0158,-0.0159,-0.0163,-0.0169,-0.0193,-0.0197,-0.0184,-0.0214,-0.0217,-0.022,-0.0211,-0.0235,-0.0236,-0.0252,-0.0252,-0.0252,-0.0192,0,0,0,0,0,0,-0.0107,-0.011,-0.0107,-0.0128,-0.0133,-0.0129,-0.0159,-0.0164,-0.0173,-0.0175,-0.0196,-0.02,-0.0215,-0.0219,-0.0221,-0.0213,-0.0237,-0.0253,-0.0252,-0.0252,-0.0194,-0.0189,-0.0186,0,0,0,0,0,-0.0106,-0.008,-0.0106,-0.0109,-0.0128,-0.0128,-0.013,-0.015,-0.0172,-0.016,-0.0182,-0.0199,-0.022,-0.0219,-0.0222,-0.0213,-0.0253,-0.0252,-0.0252,-0.0195,-0.019,-0.0186,0,0,0,0,0,0,-0.0062,-0.0082,-0.011,-0.0093,-0.0111,-0.0133,-0.0121,-0.0147,-0.0156,-0.0159,-0.0191,-0.0195,-0.02,-0.0215,-0.0213,-0.0221,-0.0242,-0.0243,-0.0198,-0.0193,-0.019,-0.0172,-0.0237,0,0,0,0,0,-0.0054,-0.0036,-0.0073,-0.0057,-0.0066,-0.01,-0.0103,-0.0121,-0.0135,-0.014,-0.0161,-0.0184,-0.02,-0.0203,-0.0219,-0.0213,-0.0239,-0.0214,-0.021,-0.0206,-0.0196,-0.023,-0.0228,-0.0252,-0.0252,-0.0252,0,0,-0.0036,-0.004,-0.0035,-0.0046,-0.0062,-0.006,-0.0101,-0.0097,-0.0099,-0.0142,-0.0141,-0.017,-0.0198,-0.0197,-0.02,-0.0206,-0.0214,-0.0206,-0.0202,-0.0194,-0.023,-0.0228,-0.0225,-0.0251,-0.0251,-0.0251,0,0,0.0018,0.0005,0.0029,0.0023,0.0005,-0.0017,-0.0018,-0.0047,-0.0061,-0.007,-0.0107,-0.0127,-0.0148,-0.0165,-0.0177,-0.0161,-0.0196,-0.0172,-0.0128,-0.0162,-0.016,-0.0159,-0.0188,-0.0189,-0.0163,-0.0163,-0.0163,0,0.0032,0.0056,0.0036,0.0057,0.0057,0.0002,0.0016,-0.0001,-0.0028,-0.0035,-0.006,-0.0107,-0.0132,-0.0137,-0.0133,-0.015,-0.0175,-0.0141,-0.0155,-0.0155,-0.0154,-0.0185,-0.0187,-0.016,-0.0161,-0.0161,-0.0161,0,0.0095,0.011,0.0131,0.013,0.0131,0.0143,0.0105,0.01,0.0064,0.0034,0.0011,-0.0033,-0.0058,-0.0076,-0.0097,-0.0106,-0.0127,-0.015,-0.0163,-0.0148,-0.0181,-0.0185,-0.0156,-0.0157,-0.0158,-0.0159,0,0,0.0123,0.0162,0.0166,0.0184,0.017,0.0183,0.0183,0.0165,0.0171,0.0119,0.0119,0.0069,0.003,0.0012,-0.0028,-0.0057,-0.008,-0.0094,-0.0097,-0.0114,-0.0152,-0.0175,-0.0182,-0.0107,-0.0107,-0.0108,-0.0175,0,0.0163,0.0227,0.0229,0.0277,0.0296,0.0269,0.0279,0.0262,0.023,0.0219,0.0149,0.0131,0.0066,0.0058,0.0015,-0.0053,-0.0087,-0.0059,-0.0171,-0.0174,-0.019,-0.0187,-0.0173,-0.0233,-0.0179,-0.018,-0.018,0,0.0209,0.0248,0.0307,0.0354,0.0359,0.0379,0.0394,0.0401,0.0366,0.0341,0.0297,0.0236,0.0185,0.0125,0.0008,0.0029,-0.0052,-0.0115,-0.012,-0.0163,-0.0205,-0.0241,-0.0243,-0.0433,-0.0187,-0.0186,-0.0186,0,0.0244,0.0302,0.0358,0.0375,0.0412,0.0438,0.045,0.0436,0.046,0.0422,0.0424,0.0331,0.0304,0.018,0.0038,0.0026,-0.0093,-0.0128,-0.0231,-0.0233,-0.0254,-0.0258,-0.0444,-0.0212,-0.0212,-0.0212,-0.0211,0,0.0287,0.033,0.0386,0.0422,0.0488,0.0496,0.0559,0.0552,0.0563,0.0603,0.0493,0.0502,0.0317,0.0219,0.0072,-0.0087,-0.0073,-0.0219,-0.0251,-0.0233,-0.0234,-0.0427,-0.0566,-0.0214,-0.0214,-0.0213,-0.0213,0,0.0315,0.0349,0.0427,0.049,0.0511,0.0565,0.064,0.0691,0.0679,0.0729,0.0723,0.0639,0.0514,0.0312,0.0125,-0.0024,-0.0313,-0.0248,-0.0213,-0.024,-0.0514,-0.0649,-0.0859,-0.1006,-0.0369,-0.037,-0.0371,0,0.0332,0.0378,0.0483,0.0543,0.0576,0.0655,0.0715,0.0743,0.0812,0.0823,0.0865,0.0755,0.0714,0.0414,0.0122,-0.0149,-0.0351,-0.0318,-0.0344,-0.0527,-0.0702,-0.0767,-0.0882,-0.035,-0.0351,-0.0351,-0.0352,0,0.0368,0.0415,0.0488,0.0611,0.0696,0.0794,0.0887,0.0964,0.1012,0.1062,0.1122,0.1091,0.0784,0.0538,0.0139,-0.0072,-0.0487,-0.0337,-0.0538,-0.0715,-0.0787,-0.0942,-0.031,-0.0356,-0.0356,-0.0355,-0.0355,-0.0355,0.0401,0.0462,0.0575,0.0694,0.0798,0.0936,0.1044,0.1161,0.1295,0.1422,0.1358,0.1401,0.0978,0.0446,0.0079,-0.0513,-0.0545,-0.0657,-0.0807,-0.0854,-0.1001,-0.0377,-0.0453,-0.0453,-0.0454,-0.0454,-0.0454,0,0.0452,0.0532,0.0649,0.0805,0.0942,0.0981,0.1168,0.1308,0.1505,0.1643,0.1718,0.1611,0.1043,0.046,-0.0353,-0.0839,-0.1051,-0.1119,-0.122,-0.1321,-0.0762,-0.0764,-0.0897,-0.0897,-0.0897,-0.0896,-0.0896,-0.0896,0.0487,0.061,0.0681,0.0909,0.1023,0.1226,0.1353,0.156,0.1736,0.1994,0.2114,0.2139,0.1786,0.0183,-0.09,-0.1233,-0.1644,-0.172,-0.1941,-0.1557,-0.1524,-0.1493,-0.1526,-0.1816,-0.1817,-0.241,-0.2417,-0.2421]}],[{"header":{"parameterUnit":"m.s-1","parameterCategory":2,"la1":30.2991,"la2":30.254,"lo1":-89.0895,"lo2":-89.0444,"dy":0.0017,"dx":0.0017,"nx":28,"ny":28,"refTime":"2025-03-15T21:00:00:Z","depth":"2","parameterNumber":2,"parameterNumberName":"U-component_of_CURRENTS"},"data":[0,0,0,0,0,0,0,0,0,0,0,0,0,0,0,0,0,0,0,0,0,0,0,0,0,0,0,0,0,0,0,0,0,0,0,0,0,0,0,0,0,0,0,0,0,0,0,0,0,0,0,0,0,0,0,0,0,0,0.2639,0.264,0,0.2666,0.2666,0.2665,0.2614,0.2613,0.2612,0.2611,0.2585,0.2585,0.2586,0,0,0,0,0,0,0,0,0,0,0,0,0,0.2486,0.2489,0.2639,0.264,0.2641,0.2666,0.2666,0.2665,0.2614,0.2613,0.2612,0.261,0.2585,0.2585,0.2586,0,0,0,0,0,0,0,0,0,0,0,0,0,0.2531,0.249,0.2639,0.2623,0.2622,0.2666,0.2666,0.2665,0.2615,0.2613,0.2611,0.261,0.2585,0.2585,0.2586,0.2621,0,0,0.2587,0.2588,0,0,0,0,0,0,0,0,0.2528,0.2535,0.2624,0.2624,0.2624,0.2641,0.2603,0.265,0.2615,0.261,0.2611,0.2609,0.2604,0.2603,0.2603,0.262,0.2619,0.2587,0.2588,0.2588,0.2588,0,0,0,0,0,0,0,0.2525,0.2534,0.2643,0.2626,0.2625,0.2596,0.26,0.2611,0.261,0.2611,0.2609,0.2623,0.2603,0.2603,0.2602,0.2619,0.2587,0.2588,0.2588,0.2588,0.2667,0.2669,0,0,0,0,0,0,0.2541,0.2532,0.2642,0.2644,0.2579,0.2601,0.2605,0.2631,0.2611,0.2609,0.2624,0.2621,0.2603,0.2602,0.2601,0.2644,0.2588,0.2588,0.2589,0.2666,0.2668,0.267,0,0,0,0,0,0,0.2538,0.2551,0.2641,0.2592,0.2603,0.2606,0.2635,0.2633,0.2635,0.2623,0.2618,0.263,0.2601,0.26,0.2614,0.2642,0.2589,0.2589,0.2663,0.2666,0.2669,0.2729,0,0,0,0,0,0,0.2534,0.255,0.2572,0.2594,0.2606,0.2673,0.2638,0.2635,0.265,0.2645,0.2627,0.2622,0.26,0.2613,0.2614,0.2642,0.2589,0.2661,0.2665,0.2668,0.2725,0.2734,0.2741,0,0,0,0,0,0.2528,0.2563,0.2573,0.2587,0.2638,0.2676,0.2678,0.2669,0.2652,0.2662,0.2647,0.2623,0.2635,0.2615,0.2616,0.2645,0.2659,0.2664,0.2668,0.2721,0.2732,0.2741,0,0,0,0,0,0,0.2507,0.2563,0.2574,0.2624,0.2654,0.2669,0.2686,0.2681,0.2678,0.267,0.2645,0.2641,0.267,0.2653,0.2631,0.2679,0.2645,0.2649,0.2686,0.2695,0.2703,0.2707,0.259,0,0,0,0,0,0.2519,0.2552,0.2603,0.2638,0.2665,0.2679,0.2693,0.269,0.2696,0.2692,0.2684,0.2679,0.2691,0.2686,0.2697,0.2719,0.2709,0.274,0.2748,0.2754,0.276,0.2776,0.2785,0.2683,0.2683,0.2683,0,0,0.2519,0.2554,0.2573,0.2635,0.2659,0.2694,0.2681,0.2712,0.273,0.2693,0.2713,0.2715,0.2707,0.2734,0.2744,0.2717,0.2781,0.276,0.2765,0.2767,0.2781,0.2791,0.2799,0.2686,0.2685,0.2685,0,0,0.2535,0.2576,0.2614,0.2641,0.269,0.2706,0.2722,0.2753,0.2762,0.2788,0.2772,0.2789,0.2797,0.28,0.28,0.2862,0.2834,0.2868,0.2897,0.2913,0.2921,0.2928,0.2932,0.2939,0.2858,0.2858,0.2859,0,0.2542,0.2584,0.2627,0.2665,0.2687,0.2716,0.2751,0.2775,0.2799,0.2818,0.28,0.2838,0.283,0.2867,0.2882,0.2881,0.2878,0.2857,0.2923,0.2929,0.2935,0.2937,0.2944,0.2862,0.2861,0.2861,0.2861,0,0.257,0.261,0.2635,0.2693,0.2727,0.2757,0.2808,0.284,0.2854,0.2871,0.2923,0.2921,0.2938,0.2946,0.2927,0.2976,0.2957,0.294,0.2894,0.2949,0.2948,0.2954,0.2867,0.2865,0.2864,0.2864,0,0,0.258,0.2645,0.2653,0.2678,0.2737,0.277,0.2826,0.2886,0.2925,0.2951,0.3001,0.3022,0.3027,0.303,0.3024,0.303,0.3068,0.3,0.2999,0.2996,0.3097,0.3122,0.313,0.306,0.3061,0.3062,0.3079,0,0.2592,0.2664,0.2681,0.2731,0.2782,0.2813,0.2862,0.2917,0.2963,0.3022,0.3046,0.3089,0.306,0.3074,0.3082,0.308,0.3087,0.3065,0.305,0.305,0.3059,0.314,0.2882,0.288,0.3084,0.3085,0.3086,0,0.2608,0.2661,0.2713,0.2774,0.2797,0.2818,0.2904,0.2947,0.3039,0.3079,0.313,0.3153,0.3189,0.3154,0.3169,0.3155,0.3134,0.3121,0.3121,0.3127,0.3087,0.2858,0.2882,0.3095,0.3094,0.3094,0.3093,0,0.2603,0.2674,0.271,0.2725,0.2803,0.2826,0.2872,0.2965,0.3019,0.3121,0.3169,0.3218,0.3243,0.3238,0.3219,0.3194,0.3232,0.319,0.3193,0.3193,0.2964,0.2943,0.3203,0.3203,0.3203,0.3203,0.3203,0,0.26,0.2633,0.2707,0.2723,0.2773,0.2832,0.2884,0.2954,0.3057,0.3117,0.3192,0.325,0.3264,0.3289,0.3257,0.3259,0.3262,0.3222,0.3213,0.2981,0.2963,0.3135,0.3127,0.3204,0.3204,0.3204,0.3204,0,0.2574,0.2618,0.2662,0.274,0.2764,0.28,0.2883,0.293,0.3039,0.3127,0.3162,0.3278,0.3322,0.3337,0.3336,0.3309,0.3304,0.3297,0.3031,0.2994,0.3238,0.3233,0.3305,0.3306,0.3307,0.3308,0.3309,0,0.2563,0.2585,0.2656,0.2671,0.2692,0.2753,0.2792,0.2911,0.2964,0.3131,0.3168,0.3276,0.3342,0.3393,0.3334,0.3316,0.335,0.3091,0.3015,0.3273,0.3255,0.3249,0.3242,0.2714,0.2709,0.2706,0.2703,0,0.2536,0.2547,0.2575,0.2619,0.2647,0.269,0.2761,0.2806,0.2934,0.3028,0.3152,0.3235,0.3305,0.32,0.3214,0.3157,0.3083,0.303,0.3347,0.2765,0.2727,0.2708,0.2717,0.2673,0.2676,0.2678,0.268,0.2681,0.2486,0.2492,0.2514,0.2545,0.2578,0.2608,0.262,0.267,0.2749,0.2809,0.299,0.2998,0.3051,0.2944,0.2862,0.278,0.2987,0.2845,0.2848,0.2857,0.2824,0.2794,0.2744,0.2747,0.275,0.2753,0.2755,0,0.2409,0.2425,0.2445,0.2469,0.2448,0.2515,0.2575,0.2507,0.2512,0.2595,0.2653,0.2471,0.2469,0.2507,0.235,0.2393,0.2281,0.23,0.2121,0.2157,0.2187,0.2111,0.1846,0.1843,0.184,0.1837,0,0,0.2359,0.2337,0.2354,0.2315,0.2331,0.2245,0.2251,0.2176,0.2172,0.2094,0.2085,0.2267,0.2436,0.2075,0.2073,0.1934,0.2004,0.1852,0.2591,0.2415,0.244,0.2531,0.2463,0,0,0,0,0]},{"header":{"parameterUnit":"m.s-1","parameterCategory":2,"la1":30.2991,"la2":30.254,"lo1":-89.0895,"lo2":-89.0444,"dy":0.0017,"dx":0.0017,"nx":28,"ny":28,"refTime":"2025-03-15T21:00:00:Z","depth":"2","parameterNumber":3,"parameterNumberName":"V-component_of_CURRENTS"},"data":[0,0,0,0,0,0,0,0,0,0,0,0,0,0,0,0,0,0,0,0,0,0,0,0,0,0,0,0,0,0,0,0,0,0,0,0,0,0,0,0,0,0,0,0,0,0,0,0,0,0,0,0,0,0,0,0,0,0,-0.0067,-0.0068,0,-0.0102,-0.0102,-0.0103,-0.0132,-0.0132,-0.0132,-0.0133,-0.0172,-0.0173,-0.0173,0,0,0,0,0,0,0,0,0,0,0,0,0,-0.0035,-0.0035,-0.0067,-0.0068,-0.0068,-0.0102,-0.0102,-0.0103,-0.0131,-0.0132,-0.0133,-0.0133,-0.0172,-0.0172,-0.0173,0,0,0,0,0,0,0,0,0,0,0,0,0,-0.0056,-0.0035,-0.0067,-0.0088,-0.009,-0.0102,-0.0102,-0.0103,-0.0131,-0.0132,-0.0133,-0.0133,-0.0171,-0.0172,-0.0173,-0.0166,0,0,-0.0176,-0.0177,0,0,0,0,0,0,0,0,-0.0055,-0.0057,-0.0084,-0.0086,-0.0089,-0.0114,-0.0106,-0.0125,-0.0131,-0.0114,-0.0133,-0.0134,-0.0153,-0.0156,-0.0159,-0.0168,-0.017,-0.0176,-0.0177,-0.0177,-0.0178,0,0,0,0,0,0,0,-0.0053,-0.0056,-0.008,-0.0085,-0.0088,-0.0099,-0.0102,-0.0109,-0.0129,-0.0116,-0.0118,-0.0124,-0.0155,-0.0158,-0.016,-0.017,-0.0176,-0.0177,-0.0178,-0.0178,-0.0196,-0.0196,0,0,0,0,0,0,-0.0051,-0.0054,-0.0079,-0.0081,-0.0075,-0.0099,-0.0103,-0.0104,-0.0129,-0.0133,-0.0124,-0.0125,-0.0156,-0.0159,-0.0162,-0.0152,-0.0177,-0.0178,-0.0179,-0.0196,-0.0196,-0.0196,0,0,0,0,0,0,-0.005,-0.0052,-0.0077,-0.007,-0.0074,-0.0099,-0.0101,-0.0105,-0.0112,-0.0135,-0.014,-0.0127,-0.0157,-0.016,-0.0164,-0.0154,-0.0179,-0.0179,-0.0197,-0.0196,-0.0196,-0.0135,0,0,0,0,0,0,-0.0048,-0.0051,-0.0049,-0.0069,-0.0074,-0.0071,-0.01,-0.0105,-0.0115,-0.0118,-0.0139,-0.0143,-0.0157,-0.0162,-0.0165,-0.0156,-0.018,-0.0197,-0.0196,-0.0196,-0.0137,-0.0133,-0.0129,0,0,0,0,0,-0.0047,-0.0023,-0.0049,-0.0052,-0.0071,-0.007,-0.0072,-0.0092,-0.0114,-0.0103,-0.0125,-0.0143,-0.0164,-0.0162,-0.0165,-0.0157,-0.0197,-0.0197,-0.0196,-0.0139,-0.0134,-0.013,0,0,0,0,0,0,-0.0006,-0.0025,-0.0053,-0.0038,-0.0055,-0.0075,-0.0063,-0.009,-0.0099,-0.0103,-0.0134,-0.0138,-0.0143,-0.0158,-0.0157,-0.0165,-0.0186,-0.0186,-0.0142,-0.0137,-0.0133,-0.0116,-0.0181,0,0,0,0,0,0.0001,0.0019,-0.0018,-0.0002,-0.0012,-0.0044,-0.0048,-0.0065,-0.0079,-0.0084,-0.0106,-0.0128,-0.0144,-0.0146,-0.0162,-0.0157,-0.0183,-0.0158,-0.0153,-0.015,-0.0139,-0.0174,-0.0171,-0.0196,-0.0196,-0.0196,0,0,0.0019,0.0014,0.002,0.0008,-0.0007,-0.0005,-0.0046,-0.0042,-0.0043,-0.0086,-0.0085,-0.0114,-0.0142,-0.014,-0.0144,-0.015,-0.0158,-0.015,-0.0146,-0.0138,-0.0173,-0.0171,-0.0169,-0.0195,-0.0196,-0.0196,0,0,0.0073,0.0059,0.0082,0.0077,0.0059,0.0036,0.0035,0.0007,-0.0007,-0.0015,-0.0052,-0.0072,-0.0093,-0.0108,-0.0121,-0.0104,-0.014,-0.0116,-0.0072,-0.0105,-0.0103,-0.0101,-0.0132,-0.0134,-0.0107,-0.0107,-0.0107,0,0.0085,0.011,0.009,0.0109,0.011,0.0055,0.007,0.0053,0.0026,0.002,-0.0006,-0.0052,-0.0076,-0.008,-0.0076,-0.0093,-0.0119,-0.0084,-0.0098,-0.0097,-0.0097,-0.0129,-0.0132,-0.0104,-0.0104,-0.0104,-0.0105,0,0.015,0.0164,0.0185,0.0183,0.0184,0.0197,0.0159,0.0154,0.0117,0.0088,0.0066,0.0023,-0.0002,-0.002,-0.004,-0.0048,-0.007,-0.0093,-0.0106,-0.0091,-0.0126,-0.013,-0.01,-0.0101,-0.0101,-0.0102,0,0,0.0176,0.0216,0.022,0.0239,0.0224,0.0237,0.0238,0.022,0.0227,0.0175,0.0175,0.0126,0.0087,0.007,0.0029,0.0001,-0.0022,-0.0036,-0.004,-0.0058,-0.0095,-0.0121,-0.0128,-0.0049,-0.0049,-0.0049,-0.0121,0,0.0217,0.0279,0.0283,0.0333,0.0352,0.0326,0.0336,0.0319,0.0287,0.0276,0.0207,0.0188,0.0124,0.0115,0.0073,0.0005,-0.003,-0.0001,-0.0114,-0.0117,-0.0136,-0.0132,-0.0099,-0.0161,-0.0125,-0.0125,-0.0126,0,0.0264,0.0301,0.0362,0.041,0.0416,0.0437,0.0452,0.0459,0.0423,0.0399,0.0354,0.0292,0.0241,0.0182,0.0066,0.0087,0.0004,-0.0058,-0.0063,-0.0109,-0.015,-0.0172,-0.017,-0.0133,-0.0132,-0.0132,-0.0131,0,0.0298,0.0356,0.0414,0.0432,0.047,0.0496,0.0507,0.0494,0.0517,0.0478,0.0479,0.0387,0.0358,0.0236,0.0093,0.0082,-0.0039,-0.0072,-0.0177,-0.018,-0.0184,-0.0187,-0.0156,-0.0156,-0.0156,-0.0156,-0.0156,0,0.0342,0.0387,0.0441,0.0478,0.0544,0.0553,0.0616,0.0608,0.0619,0.0657,0.0548,0.0556,0.0371,0.0272,0.0126,-0.0035,-0.002,-0.0167,-0.0199,-0.0163,-0.0163,-0.0165,-0.0165,-0.0159,-0.0158,-0.0157,-0.0157,0,0.0371,0.0406,0.0484,0.0547,0.0567,0.0621,0.0695,0.0747,0.0733,0.0781,0.0775,0.0689,0.0562,0.0361,0.0174,0.0026,-0.0136,-0.0199,-0.0145,-0.017,-0.0264,-0.026,-0.032,-0.0322,-0.0323,-0.0324,-0.0325,0,0.039,0.0436,0.0539,0.0598,0.0632,0.071,0.077,0.0796,0.0866,0.0873,0.0914,0.0801,0.0755,0.0453,0.0171,-0.0098,-0.014,-0.0254,-0.0274,-0.0254,-0.028,-0.0274,-0.0269,-0.0258,-0.0258,-0.0258,-0.0259,0,0.0427,0.0474,0.0546,0.0667,0.0752,0.085,0.0942,0.1017,0.1064,0.1108,0.1162,0.1125,0.0825,0.0571,0.0175,-0.0013,-0.0213,-0.0267,-0.0257,-0.0221,-0.0202,-0.0225,-0.0221,-0.026,-0.026,-0.026,-0.026,-0.026,0.046,0.0521,0.0633,0.0752,0.0855,0.0989,0.1096,0.1205,0.1331,0.1421,0.1364,0.1318,0.0986,0.0507,0.0156,-0.0225,-0.0206,-0.0334,-0.033,-0.0328,-0.0307,-0.0291,-0.0362,-0.0363,-0.0363,-0.0363,-0.0364,0,0.0511,0.0589,0.0708,0.0861,0.0999,0.1034,0.1218,0.1344,0.152,0.1567,0.1609,0.1315,0.0982,0.0584,0.0036,-0.029,-0.0314,-0.0405,-0.0355,-0.0351,-0.0347,-0.0327,-0.0389,-0.039,-0.0391,-0.0391,0,0,0.0546,0.0671,0.0742,0.0966,0.1075,0.128,0.1405,0.157,0.1671,0.1763,0.1728,0.1604,0.112,0.072,0.0262,-0.0058,-0.0128,-0.0128,-0.0071,0.0048,0.0055,-0.0269,-0.0228,0,0,0,0,0]}],[{"header":{"parameterUnit":"m.s-1","parameterCategory":2,"la1":30.2991,"la2":30.254,"lo1":-89.0895,"lo2":-89.0444,"dy":0.0017,"dx":0.0017,"nx":28,"ny":28,"refTime":"2025-03-15T21:00:00:Z","depth":"4","parameterNumber":2,"parameterNumberName":"U-component_of_CURRENTS"},"data":[0,0,0,0,0,0,0,0,0,0,0,0,0,0,0,0,0,0,0,0,0,0,0,0,0,0,0,0,0,0,0,0,0,0,0,0,0,0,0,0,0,0,0,0,0,0,0,0,0,0,0,0,0,0,0,0,0,0,0.1064,0.1065,0,0.1196,0.1198,0.12,0.1296,0.1297,0.1297,0.1298,0.1407,0.1409,0.1411,0,0,0,0,0,0,0,0,0,0,0,0,0,0.1008,0.1008,0.1064,0.1065,0.1067,0.1196,0.1198,0.12,0.1296,0.1297,0.1298,0.1298,0.1406,0.1409,0.1411,0,0,0,0,0,0,0,0,0,0,0,0,0,0.1077,0.1008,0.1063,0.1129,0.1136,0.1196,0.1198,0.1201,0.1296,0.1297,0.1298,0.1299,0.1405,0.1408,0.1412,0.1413,0,0,0.1422,0.1424,0,0,0,0,0,0,0,0,0.1073,0.1079,0.1118,0.1124,0.1132,0.1229,0.1219,0.127,0.1295,0.1237,0.1298,0.1299,0.1343,0.1352,0.1377,0.1418,0.1422,0.1422,0.1424,0.1426,0.1427,0,0,0,0,0,0,0,0.1068,0.1075,0.1118,0.1119,0.1128,0.1191,0.1201,0.123,0.1283,0.1242,0.1249,0.1261,0.1348,0.1374,0.138,0.1424,0.1422,0.1425,0.1427,0.1429,0.1591,0.1593,0,0,0,0,0,0,0.1041,0.1069,0.1113,0.1122,0.1103,0.1191,0.1202,0.1198,0.1284,0.1298,0.126,0.1265,0.1367,0.1376,0.1384,0.1495,0.1426,0.1429,0.1431,0.1589,0.1592,0.1594,0,0,0,0,0,0,0.1039,0.1043,0.1108,0.1099,0.1111,0.119,0.1186,0.1201,0.1271,0.1298,0.1312,0.1319,0.1369,0.138,0.1458,0.1496,0.1431,0.1434,0.1586,0.159,0.1593,0.1649,0,0,0,0,0,0,0.1037,0.1041,0.1054,0.1096,0.111,0.1178,0.1185,0.1202,0.1273,0.1282,0.1352,0.1361,0.137,0.1453,0.1461,0.1499,0.1436,0.1583,0.1588,0.1592,0.1644,0.1654,0.1662,0,0,0,0,0,0.1034,0.1053,0.1054,0.1061,0.1117,0.118,0.1196,0.1256,0.1275,0.132,0.1369,0.1361,0.1486,0.1458,0.1467,0.1507,0.1581,0.1587,0.1592,0.164,0.1652,0.1662,0,0,0,0,0,0,0.1037,0.1065,0.1067,0.1092,0.1143,0.1197,0.1248,0.1279,0.1354,0.1373,0.1393,0.1407,0.1496,0.1494,0.1462,0.1568,0.1531,0.1538,0.1564,0.1576,0.1584,0.1613,0.1439,0,0,0,0,0,0.1036,0.1066,0.1094,0.1124,0.1146,0.12,0.1241,0.1281,0.1338,0.1376,0.1417,0.1464,0.1517,0.1541,0.159,0.1638,0.1647,0.167,0.1679,0.1686,0.1718,0.1752,0.1767,0.1611,0.1611,0.1611,0,0,0.105,0.1069,0.1088,0.113,0.1172,0.1216,0.1231,0.1307,0.1349,0.1371,0.1458,0.151,0.1544,0.1614,0.165,0.1618,0.1735,0.1693,0.1699,0.1727,0.1759,0.1774,0.1787,0.1615,0.1614,0.1613,0,0,0.1079,0.1102,0.1128,0.1171,0.1235,0.1269,0.1296,0.1364,0.1405,0.1485,0.1517,0.1595,0.1662,0.1696,0.1718,0.1802,0.1795,0.1818,0.1871,0.1903,0.1915,0.1927,0.1951,0.1965,0.1804,0.1804,0.1804,0,0.1086,0.1119,0.1154,0.1188,0.1226,0.1291,0.1329,0.1381,0.1472,0.1517,0.1524,0.1675,0.1699,0.1785,0.1825,0.1822,0.1844,0.1821,0.1913,0.1925,0.1935,0.1958,0.1972,0.1807,0.1807,0.1806,0.1806,0,0.1132,0.1164,0.1194,0.1246,0.1291,0.1356,0.1401,0.1476,0.1532,0.1586,0.1708,0.1756,0.1842,0.1861,0.1875,0.1971,0.1964,0.1931,0.188,0.1954,0.1973,0.1987,0.1812,0.1811,0.181,0.1809,0,0,0.1125,0.1203,0.1217,0.1242,0.1331,0.137,0.1448,0.1539,0.1612,0.1705,0.1784,0.1898,0.195,0.198,0.2002,0.2042,0.2129,0.2033,0.2033,0.205,0.2214,0.2069,0.2069,0.2116,0.2119,0.2121,0.2194,0,0.1152,0.1196,0.1245,0.132,0.1343,0.143,0.1496,0.1591,0.1677,0.1774,0.185,0.1949,0.1978,0.2031,0.208,0.2137,0.217,0.2114,0.2149,0.2151,0.2005,0.2081,0.213,0.2203,0.2206,0.2209,0.221,0,0.1176,0.1202,0.1247,0.1335,0.1359,0.1428,0.1558,0.164,0.1786,0.1848,0.1968,0.2026,0.2144,0.2118,0.2257,0.2229,0.2242,0.2262,0.2263,0.2124,0.203,0.2118,0.2234,0.2232,0.223,0.2229,0.2227,0,0.113,0.1212,0.1244,0.1277,0.1383,0.1446,0.1541,0.1684,0.1757,0.1917,0.1981,0.2117,0.2199,0.2254,0.2323,0.2303,0.2439,0.2385,0.2263,0.2252,0.2334,0.2321,0.2455,0.2455,0.2454,0.2454,0.2454,0,0.1123,0.1163,0.1237,0.1265,0.1346,0.1436,0.1568,0.1675,0.1812,0.1916,0.2034,0.211,0.2247,0.2328,0.2351,0.2367,0.2457,0.2305,0.227,0.2354,0.2343,0.2342,0.2328,0.2457,0.2456,0.2456,0.2455,0,0.1063,0.1116,0.1167,0.1276,0.1325,0.1394,0.1574,0.1657,0.1812,0.1935,0.1983,0.215,0.2276,0.2358,0.2461,0.24,0.2411,0.2376,0.2485,0.2451,0.2194,0.2183,0.2249,0.2245,0.2241,0.2238,0.2236,0,0.1024,0.104,0.1156,0.1194,0.1258,0.1383,0.1466,0.1641,0.1725,0.1947,0.198,0.2149,0.2244,0.2283,0.2378,0.2394,0.2358,0.234,0.226,0.2219,0.2179,0.2173,0.2167,0.223,0.2229,0.2228,0.2227,0,0.0951,0.1009,0.1047,0.1133,0.1217,0.1304,0.1445,0.1484,0.1695,0.1826,0.1938,0.2,0.213,0.2214,0.2246,0.2246,0.2342,0.23,0.2307,0.2232,0.2196,0.2158,0.2156,0.2214,0.2216,0.2217,0.2218,0,0.0902,0.0906,0.0979,0.1052,0.1152,0.1211,0.1296,0.1405,0.1509,0.1741,0.1785,0.196,0.2127,0.2138,0.2167,0.2163,0.2121,0.2035,0.2055,0.207,0.1975,0.1901,0.1823,0,0,0,0,0,0.0845,0.0846,0.0894,0.0964,0.1066,0.1128,0.1271,0.1356,0.1548,0.1577,0.1676,0.1781,0.1861,0.1957,0.1916,0.2069,0.2114,0.2009,0.202,0.2144,0.2158,0.2062,0,0,0,0,0,0,0.0802,0.0837,0.0853,0.0894,0.0928,0.1022,0.1107,0.1218,0.1261,0.1456,0.1518,0.1655,0.1765,0.186,0.1876,0.1898,0.1864,0.2115,0.2109,0.2135,0.2149,0.2161,0.2067,0,0,0,0,0]},{"header":{"parameterUnit":"m.s-1","parameterCategory":2,"la1":30.2991,"la2":30.254,"lo1":-89.0895,"lo2":-89.0444,"dy":0.0017,"dx":0.0017,"nx":28,"ny":28,"refTime":"2025-03-15T21:00:00:Z","depth":"4","parameterNumber":3,"parameterNumberName":"V-component_of_CURRENTS"},"data":[0,0,0,0,0,0,0,0,0,0,0,0,0,0,0,0,0,0,0,0,0,0,0,0,0,0,0,0,0,0,0,0,0,0,0,0,0,0,0,0,0,0,0,0,0,0,0,0,0,0,0,0,0,0,0,0,0,0,0.0439,0.0438,0,0.0409,0.0409,0.0409,0.0391,0.0391,0.0391,0.0391,0.0356,0.0355,0.0354,0,0,0,0,0,0,0,0,0,0,0,0,0,0.0393,0.0395,0.0439,0.0438,0.0438,0.0409,0.0409,0.0409,0.0391,0.0391,0.0391,0.0391,0.0356,0.0355,0.0354,0,0,0,0,0,0,0,0,0,0,0,0,0,0.0394,0.0395,0.0439,0.0425,0.0424,0.041,0.0409,0.0409,0.0391,0.0391,0.0391,0.0391,0.0356,0.0355,0.0354,0.035,0,0,0.035,0.0349,0,0,0,0,0,0,0,0,0.0394,0.0396,0.0428,0.0426,0.0425,0.0404,0.038,0.0388,0.0391,0.0404,0.0391,0.0391,0.0371,0.0369,0.0364,0.0348,0.0346,0.035,0.0349,0.0349,0.0348,0,0,0,0,0,0,0,0.0394,0.0396,0.0427,0.0427,0.0425,0.0391,0.0392,0.0381,0.0389,0.0403,0.0402,0.0398,0.037,0.0365,0.0363,0.0346,0.035,0.0349,0.0348,0.0348,0.0315,0.0315,0,0,0,0,0,0,0.0402,0.0397,0.0428,0.0426,0.0408,0.0393,0.0394,0.0411,0.0389,0.0386,0.0398,0.0397,0.0368,0.0365,0.0362,0.0361,0.0349,0.0347,0.0347,0.0315,0.0315,0.0315,0,0,0,0,0,0,0.0402,0.0406,0.0429,0.0409,0.041,0.0394,0.0413,0.041,0.0404,0.0385,0.0382,0.0394,0.0367,0.0363,0.0351,0.0359,0.0347,0.0346,0.0315,0.0315,0.0315,0.0356,0,0,0,0,0,0,0.0401,0.0407,0.0423,0.0411,0.0411,0.0423,0.0413,0.041,0.0402,0.04,0.0381,0.0378,0.0367,0.0353,0.035,0.0357,0.0345,0.0315,0.0315,0.0315,0.0355,0.0357,0.036,0,0,0,0,0,0.04,0.0418,0.0425,0.0428,0.0435,0.0423,0.042,0.0407,0.0402,0.04,0.0387,0.0378,0.0349,0.0352,0.0348,0.0356,0.0315,0.0315,0.0315,0.0354,0.0357,0.036,0,0,0,0,0,0,0.0405,0.0417,0.0424,0.0447,0.0438,0.0419,0.0419,0.0408,0.0396,0.0396,0.0377,0.0373,0.0364,0.0351,0.0355,0.0344,0.033,0.0329,0.0362,0.0364,0.0366,0.0375,0.0344,0,0,0,0,0,0.0416,0.0433,0.0434,0.0448,0.045,0.0436,0.043,0.0421,0.0407,0.0401,0.0388,0.0373,0.036,0.0355,0.0341,0.0337,0.0305,0.0338,0.034,0.0342,0.0345,0.0301,0.03,0.0314,0.0314,0.0314,0,0,0.0418,0.0428,0.0436,0.0449,0.0445,0.0454,0.0432,0.0425,0.0433,0.0399,0.0405,0.038,0.0359,0.0355,0.035,0.0346,0.0319,0.0342,0.0344,0.0346,0.03,0.0299,0.0298,0.0313,0.0314,0.0314,0,0,0.0429,0.0446,0.0467,0.0466,0.0465,0.046,0.046,0.0447,0.0446,0.044,0.042,0.04,0.0383,0.0372,0.0364,0.0369,0.0331,0.0361,0.0384,0.0341,0.034,0.0338,0.0288,0.0282,0.0365,0.0365,0.0365,0,0.0436,0.0471,0.0465,0.0484,0.0492,0.0468,0.049,0.0481,0.0463,0.0465,0.0447,0.0412,0.0394,0.0389,0.0388,0.0376,0.0337,0.0379,0.0345,0.0343,0.034,0.029,0.0282,0.0367,0.0367,0.0367,0.0367,0,0.0459,0.0492,0.05,0.0529,0.0531,0.054,0.0537,0.0531,0.0521,0.0512,0.0497,0.046,0.0441,0.0428,0.041,0.0389,0.0361,0.0351,0.0341,0.0341,0.0288,0.0279,0.037,0.0369,0.0369,0.0368,0,0,0.0474,0.0516,0.0521,0.0551,0.0561,0.0567,0.0579,0.0589,0.0599,0.0565,0.0571,0.0533,0.0501,0.0488,0.0456,0.0415,0.0361,0.0376,0.0373,0.0332,0.0251,0.0238,0.0226,0.0339,0.0338,0.0338,0.0218,0,0.0504,0.0564,0.057,0.0617,0.0653,0.0638,0.0658,0.0655,0.0641,0.0635,0.0588,0.0577,0.053,0.0515,0.0467,0.0389,0.0341,0.0394,0.0252,0.0248,0.024,0.0217,0.0334,0.0211,0.0209,0.0208,0.0207,0,0.0533,0.0576,0.0642,0.0692,0.0705,0.0721,0.0745,0.0757,0.0738,0.0723,0.0686,0.0643,0.0584,0.0542,0.0403,0.0434,0.0347,0.0279,0.0273,0.0241,0.0219,0.021,0.019,0.0192,0.0193,0.0194,0.0195,0,0.0563,0.0625,0.0687,0.0702,0.0748,0.0767,0.0787,0.0786,0.081,0.0776,0.0769,0.069,0.0647,0.0528,0.0385,0.0387,0.0221,0.0211,0.0115,0.0113,0.0144,0.0147,0.0111,0.0112,0.0112,0.0112,0.0113,0,0.0598,0.0645,0.0707,0.0738,0.0809,0.0816,0.0871,0.087,0.0874,0.0897,0.0819,0.0796,0.0638,0.0526,0.0394,0.0224,0.0225,0.0111,0.0081,0.0163,0.0169,0.0137,0.0141,0.0108,0.0109,0.011,0.011,0,0.0615,0.0659,0.0733,0.0799,0.083,0.0875,0.0942,0.0967,0.096,0.0978,0.0969,0.0868,0.0713,0.0549,0.0349,0.024,0.0082,0.0024,0.0117,0.0095,-0.0004,0.0005,-0.01,-0.0102,-0.0103,-0.0104,-0.0105,0,0.0634,0.0677,0.0782,0.0832,0.0865,0.0937,0.0989,0.1016,0.104,0.1017,0.102,0.0889,0.0798,0.0505,0.0328,0.0071,0.004,-0.0048,-0.0024,-0.0007,-0.0026,-0.0016,-0.0006,-0.0107,-0.0107,-0.0108,-0.0108,0,0.0663,0.0697,0.0758,0.0873,0.0942,0.1023,0.1088,0.1115,0.1131,0.1124,0.1052,0.0901,0.0726,0.0503,0.0302,0.0123,0.0005,-0.0062,-0.006,-0.0039,-0.0016,-0.0032,-0.0021,-0.0112,-0.0112,-0.0111,-0.0111,0,0.0678,0.0724,0.0809,0.09,0.0998,0.1075,0.1112,0.1131,0.1162,0.1126,0.1098,0.0912,0.0806,0.0528,0.0345,0.0163,0.0117,0.0059,0.0053,0.0056,0.0139,0.0193,0.0129,0,0,0,0,0,0.0688,0.074,0.0829,0.0936,0.1028,0.1086,0.1164,0.1184,0.1197,0.1154,0.113,0.0967,0.0684,0.0562,0.0377,0.0315,0.0083,0.0091,0.0014,-0.0137,-0.0132,-0.0062,0,0,0,0,0,0,0.0696,0.0779,0.0825,0.0945,0.1013,0.1121,0.117,0.1181,0.1155,0.1135,0.099,0.0915,0.0644,0.079,0.0371,0.0315,0.0238,-0.0039,-0.0043,-0.014,-0.0135,-0.0131,-0.0057,0,0,0,0,0]}]]